Home   Weather   Velbert   Past weeks

Flag for Germany Past Weather in Velbert, North Rhine-Westphalia, Germany — Yesterday and Last 2 Weeks

45 °F

Drizzle. Mostly cloudy.

Feels Like: 38 °F
Forecast: 40 / 48 °F
Wind: 13 mph from Southwest

Location: Duesseldorf

Current Time: Oct 21, 2016 at 8:31:27 PM

Latest Report: Oct 21, 2016 at 7:50 PM

Visibility: 4 mi

Pressure: 29.95 "Hg

Humidity: 100%

Dew Point: 45 °F

Location of VelbertLocation

Past Weather in Velbert — Graph


Velbert Temperature Yesterday

Maximum temperature yesterday: 48 °F (at 2:20 PM)
Minimum temperature yesterday: 43 °F (at 10:50 PM)
Average temperature yesterday: 46 °F

High & Low Weather Summary for the Past Weeks

High66 °F (Oct 16, 2:20 PM)100% (Oct 8, 10:20 PM)30.30 "Hg (Oct 8, 10:20 PM)
Low34 °F (Oct 11, 6:20 AM)51% (Oct 8, 2:20 PM)29.65 "Hg (Oct 15, 1:20 AM)
Average50 °F84%30.06 "Hg
* Reported Oct 6 7:20 PM — Oct 21 7:20 PM, Velbert, Weather by CustomWeather, © 2016

Note: Actual official high and low records may vary slightly from our data, if they occured in-between our weather recording intervals... More about our weather records


Velbert Weather History for the Previous 24 Hours

Scroll right to see more
Time TempWeatherWind HumidityBarometerVisibility
7:20 PM
Fri, Oct 21
46 °FDrizzle. Overcast.12 mph87%29.95 "Hg5 mi
6:50 PM45 °FPartly cloudy.9 mph93%29.95 "Hg5 mi
6:20 PM46 °FDrizzle. Broken clouds.10 mph87%29.98 "Hg5 mi
5:50 PM46 °FDrizzle. Overcast.10 mph87%29.98 "Hg6 mi
5:20 PM46 °FPartly sunny.9 mph87%29.98 "HgN/A
4:50 PM46 °FDrizzle. Partly sunny.10 mph82%29.98 "HgN/A
4:20 PM46 °FLight rain. Mostly cloudy.10 mph82%29.98 "HgN/A
3:50 PM46 °FLight rain. Overcast.9 mph82%29.98 "HgN/A
3:20 PM46 °FBroken clouds.7 mph82%29.98 "HgN/A
2:50 PM46 °FPartly sunny.7 mph82%30.01 "HgN/A
2:20 PM46 °FPartly sunny.8 mph82%30.01 "HgN/A
1:50 PM46 °FPartly sunny.7 mph82%30.01 "HgN/A
1:20 PM46 °FPartly sunny.9 mph82%30.01 "HgN/A
12:50 PM46 °FBroken clouds.8 mph82%30.01 "HgN/A
12:20 PM46 °FPartly sunny.7 mph82%30.01 "Hg6 mi
11:50 AM46 °FPartly sunny.6 mph82%30.01 "Hg6 mi
11:20 AM46 °FPartly sunny.6 mph82%30.01 "Hg6 mi
10:50 AM45 °FPartly sunny.7 mph87%30.01 "Hg6 mi
10:20 AM46 °FPartly sunny.9 mph87%30.01 "Hg6 mi
9:50 AM46 °FScattered clouds.7 mph87%30.01 "Hg4 mi
9:20 AM45 °FPassing clouds.2 mph93%29.98 "Hg4 mi
8:50 AM45 °FBroken clouds.6 mph93%29.98 "Hg4 mi
8:20 AM45 °FBroken clouds.6 mph93%29.98 "Hg4 mi
7:50 AM45 °FPartly cloudy.6 mph93%29.98 "Hg4 mi
7:20 AM45 °FPartly cloudy.7 mph93%29.98 "Hg4 mi
6:50 AM45 °FPartly cloudy.7 mph100%29.98 "Hg4 mi
6:20 AM45 °FFog.8 mph100%29.98 "Hg2 mi
5:50 AM45 °FFog.6 mph100%29.98 "Hg2 mi
5:20 AM45 °FFog.6 mph100%29.98 "Hg3 mi
4:50 AM45 °FFog.5 mph100%29.95 "Hg2 mi
4:20 AM45 °FFog.3 mph100%29.95 "Hg2 mi
3:50 AM45 °FFog.2 mph100%29.95 "Hg2 mi
3:20 AM46 °FFog.2 mph93%29.98 "Hg2 mi
2:50 AM45 °FFog.2 mph100%29.98 "Hg2 mi
2:20 AM45 °FFog.2 mph100%29.98 "Hg2 mi
1:50 AM45 °FFog.2 mph100%29.98 "Hg2 mi
1:20 AM45 °FFog.3 mph100%29.98 "Hg3 mi
12:50 AM45 °FFog.1 mph100%29.98 "Hg3 mi
12:20 AM45 °FPassing clouds.2 mph100%29.98 "Hg4 mi
11:50 PM
Thu, Oct 20
45 °FPassing clouds.No wind100%29.95 "Hg4 mi
11:20 PM45 °FPartly cloudy.2 mph100%29.95 "Hg5 mi
10:50 PM43 °FFog.1 mph100%29.95 "Hg6 mi
10:20 PM45 °FFog.3 mph100%29.95 "Hg5 mi
9:50 PM45 °FPassing clouds.3 mph100%29.95 "Hg5 mi
9:20 PM45 °FPassing clouds.3 mph100%29.95 "HgN/A
8:50 PM45 °FClear.6 mph100%29.95 "Hg10 mi
8:20 PM45 °FFog.3 mph100%29.95 "HgN/A
Weather by CustomWeather, © 2016

See weather overviewHow to use our weather pages